SCP
0 0 0 0 0 0 1 2 0 0 0 4 0 1 1 0 0 0 0 0 0 0 0 0 0 0 0 0 0 0 0 0 0 0 0 0 0 1 0 1 0 0 0
0 0 0 0 0 1 1 3 3 2 1 1 0 1 1 0 0 0 0 0 0 0 0 0 0 0 0 0 0 0 0 0 0 1 0 0 0 0 0 0 0 0 0
0 0 0 0 3 3 2 3 2 1 1 1 0 0 0 0 0 0 0 0 0 0 0 0 0 0 0 0 0 0 0 0 0 1 1 0 0 -0 0 0 0 0 0
0 0 0 2 3 3 3 4 2 1 1 0 0 0 0 0 0 0 0 0 0 0 0 0 0 0 0 0 0 0 0 0 0 0 0 0 -0 -0 -0 -0 -0 0 0
0 0 1 2 2 2 2 2 2 2 2 1 0 0 0 0 0 0 0 0 0 0 0 0 0 0 0 0 0 1 1 1 0 0 0 0 0 0 0 0 0 0 0
0 0 0 0 0 1 2 2 2 1 0 0 0 0 0 0 0 0 0 0 0 0 0 0 0 0 0 0 0 0 -0 -0 -0 0 0 0 0 0 0 0 0 0 0
0 0 0 0 0 0 1 3 3 1 1 0 0 0 0 0 0 0 0 0 0 0 0 0 0 0 1 0 0 0 -0 -0 -0 0 0 0 0 0 0 0 0 0 0
0 0 0 0 1 1 1 1 2 2 1 0 0 0 0 1 1 1 0 0 1 1 0 0 1 1 0 0 0 -0 -0 -0 0 0 0 0 0 0 0 0 0 0 0
0 0 0 0 1 1 1 1 1 1 2 1 1 1 1 1 1 1 1 1 1 0 0 1 1 0 0 0 0 -0 0 0 0 0 0 0 0 0 0 0 0 0 0
0 0 1 1 1 0 0 0 0 2 2 1 1 1 1 1 1 0 0 0 0 0 0 0 0 -0 -0 0 0 0 0 0 0 0 0 0 0 0 0 0 0 0 0
0 0 0 0 0 0 0 0 0 0 0 0 0 0 1 0 0 0 0 0 0 0 0 0 0 -0 0 0 0 0 0 0 0 0 0 0 0 0 0 0 0 0 0
0 0 0 0 0 0 0 0 0 0 0 0 0 0 0 0 0 0 0 0 0 0 0 0 0 0 0 0 0 0 1 0 0 0 0 0 0 0 0 0 0 0 0
-0 0 0 0 0 0 0 0 0 0 0 0 0 0 0 0 0 0 0 0 0 0 0 0 0 0 0 0 0 0 0 0 0 0 0 0 0 0 0 0 0 0 0
0 -0 0 0 0 0 0 0 0 0 0 0 0 0 0 0 0 0 0 0 0 0 0 0 0 0 0 0 0 0 0 0 0 0 0 0 0 0 0 0 0 0 0
0 0 0 0 0 0 0 0 0 0 0 0 0 0 0 0 0 0 0 0 0 0 0 0 0 0 0 0 0 0 0 0 0 0 0 0 0 0 0 0 0 0 0
0 0 0 0 0 0 0 0 0 0 0 0 0 0 0 0 0 0 0 0 0 0 0 0 0 0 0 0 0 0 0 0 0 0 0 0 0 0 0 0 0 0 0
0 0 0 0 0 0 0 0 0 0 0 0 0 0 0 0 0 0 0 0 0 0 0 0 0 0 0 0 0 0 0 0 0 0 0 0 0 0 0 0 0 0 0
0 0 0 0 0 0 0 0 0 0 0 0 0 0 0 0 0 0 0 0 0 0 0 0 0 0 0 0 0 0 0 0 0 0 0 0 0 0 0 0 0 0 0
0 0 0 0 0 0 0 0 0 0 0 0 0 0 0 0 0 0 0 0 0 0 0 0 0 0 0 0 0 0 0 0 0 0 0 0 0 0 0 0 0 0 0
0 0 0 0 0 0 0 0 0 0 0 0 0 0 0 0 0 0 0 0 0 0 0 0 0 0 0 0 0 0 0 0 0 0 0 0 0 0 0 0 0 0 0
0 0 0 0 0 0 0 0 0 0 0 0 0 0 0 0 0 0 0 0 0 0 0 0 0 0 0 0 0 0 0 0 0 0 0 0 0 0 0 0 0 0 0
0 0 0 0 0 0 0 0 0 0 0 0 0 0 0 0 0 0 0 0 0 0 0 0 0 0 0 0 0 0 0 0 0 0 0 0 0 0 0 0 0 0 0
0 0 0 0 0 0 0 0 0 0 0 0 0 0 0 0 -0 -0 0 0 0 0 0 0 -0 0 0 0 0 0 0 0 0 0 0 0 0 0 0 0 0 0 0
0 0 0 0 0 0 0 0 0 0 0 0 0 0 -0 -0 -0 0 0 0 0 0 -0 -0 -0 0 0 0 0 0 0 0 0 0 0 0 0 0 0 0 0 0 0
0 0 0 0 0 0 0 0 0 0 0 -0 -0 -0 -0 -0 0 0 0 -0 -0 -0 -0 -0 0 0 0 0 0 0 0 0 0 0 0 0 0 0 0 0 0 0 0
0 0 0 0 0 0 0 0 0 -0 -0 0 0 -0 -0 -0 0 -0 0 -0 -0 -0 -0 0 0 0 0 0 0 0 0 0 0 0 0 0 0 0 0 0 0 0 0
Wind_Speed_500mb
52 56 63 63 63 50 63 65 64 74 88 76 72 73 67 49 54 54 47 42 46 43 40 62 57 52 57 62 32 40 37 44 46 35 39 38 34 36 33 35 37 38 38
51 49 59 59 60 59 50 49 60 71 52 76 78 54 87 74 64 63 51 40 33 41 52 33 61 63 53 51 53 64 38 49 37 23 18 24 26 30 31 25 23 19 25
27 51 39 54 59 38 38 48 53 50 51 62 64 66 67 62 77 61 53 52 68 66 69 74 85 80 78 65 51 55 56 41 35 34 14 5 20 44 37 36 35 32 27
18 31 31 45 44 41 44 52 54 48 42 45 66 68 69 82 76 80 71 68 69 55 59 41 50 65 73 73 54 58 57 47 49 39 38 37 41 46 49 50 43 37 40
42 27 31 32 32 30 31 38 39 48 52 62 64 60 64 66 70 67 60 47 56 51 50 44 44 47 51 58 59 52 50 50 53 48 50 50 60 55 49 52 52 45 39
51 50 41 37 19 18 18 30 36 38 45 57 57 57 47 45 47 48 51 50 46 52 54 61 59 56 64 65 47 40 52 47 53 57 58 65 60 47 41 39 62 63 55
51 35 28 29 24 25 20 39 36 38 47 56 60 58 53 55 49 50 50 46 59 64 55 58 75 73 65 46 25 34 53 41 57 60 65 59 54 50 51 51 52 57 55
53 48 36 23 12 16 29 9 27 31 42 49 55 60 51 54 55 42 38 42 50 53 53 61 67 83 80 56 40 34 38 50 60 61 59 58 50 51 50 47 43 51 53
46 35 29 25 19 13 16 23 8 9 38 32 32 36 42 44 50 46 46 43 42 52 56 59 59 64 64 58 50 47 50 66 58 55 57 57 48 47 40 37 35 40 53
44 46 39 36 32 29 28 25 24 24 12 10 28 31 32 34 39 40 41 43 48 55 56 53 39 40 38 47 44 48 51 46 47 49 50 48 50 47 43 42 42 48 56
53 49 48 42 39 35 27 30 36 34 29 21 14 8 15 1 8 9 15 22 32 44 44 27 50 54 38 36 37 38 37 39 41 44 50 53 55 54 50 50 54 58 61
31 41 42 38 33 30 27 29 33 31 29 25 19 17 13 24 25 19 15 19 20 7 4 20 19 14 17 21 31 34 36 44 46 49 55 59 60 66 62 62 64 66 67
28 40 38 37 37 29 24 25 24 26 23 20 14 11 8 5 9 8 5 3 4 3 3 5 3 1 10 19 29 38 46 50 56 62 65 68 69 73 75 74 76 75 75
14 28 43 45 51 46 41 32 26 23 18 14 13 12 11 8 7 8 8 10 9 9 15 18 22 28 36 37 38 39 42 44 48 53 55 61 64 67 73 78 83 84 82
24 39 51 49 46 43 38 27 15 10 8 5 18 25 21 20 23 24 21 18 19 21 24 26 27 31 36 41 48 57 63 66 72 76 74 72 69 63 59 57 63 63 70
48 47 43 37 31 28 24 21 15 16 15 12 13 18 23 28 30 27 27 27 28 32 35 38 42 46 48 52 56 61 68 75 83 89 93 95 94 95 95 93 91 80 69
49 42 39 32 26 21 19 17 19 16 11 11 14 20 22 22 25 28 32 38 43 47 50 53 56 58 60 60 63 66 68 72 76 81 86 88 89 89 89 92 95 96 96
33 26 23 16 13 13 14 14 15 18 17 16 20 25 27 31 37 43 47 51 54 56 59 61 61 60 58 54 51 58 66 71 74 77 81 82 82 82 83 85 88 89 86
17 16 16 13 11 11 14 19 19 19 22 27 27 33 37 43 48 52 54 57 60 60 58 54 54 55 59 62 66 72 78 81 84 83 81 77 79 78 73 68 72 78 80
4 4 6 12 17 21 22 16 16 23 28 31 35 41 46 48 49 52 54 49 50 52 58 65 69 73 70 59 57 56 59 64 64 61 61 59 59 57 57 57 61 59 52
8 10 14 14 16 10 19 23 25 27 32 37 45 48 50 51 51 52 53 59 65 70 73 69 60 53 51 49 40 44 52 57 61 64 64 58 52 55 53 54 58 64 63
7 10 9 10 13 17 22 24 24 26 31 35 38 44 47 52 59 66 72 75 72 62 60 53 51 47 40 42 48 53 51 51 53 55 55 56 54 55 52 55 57 56 59
11 10 8 7 11 16 20 26 29 36 41 47 50 52 57 62 68 79 70 57 53 49 46 44 43 45 46 48 52 50 52 54 58 62 61 58 62 67 67 56 49 43 44
13 18 21 22 26 31 35 38 45 50 51 52 55 60 67 77 76 56 48 45 43 41 38 36 42 48 51 51 55 60 62 61 61 65 68 65 64 62 55 46 32 34 34
21 25 30 37 44 51 55 56 58 62 63 65 69 72 67 54 47 41 37 33 27 26 31 36 39 45 51 55 61 59 58 60 60 59 58 54 52 52 43 27 24 33 46
28 34 40 46 44 48 50 54 56 59 64 62 53 42 38 34 33 34 33 22 23 21 21 23 28 40 50 57 51 50 52 49 50 48 42 39 40 39 25 20 28 41 40
Wind_Direction_500mb
230 240 237 244 242 228 239 237 214 195 189 196 195 200 244 228 224 221 217 213 220 219 224 232 224 227 225 218 247 221 239 249 283 274 255 267 271 300 278 272 281 277 270
230 235 235 231 234 223 233 215 201 198 216 205 203 204 200 214 234 227 225 234 249 259 244 264 223 235 246 249 228 218 235 244 252 268 280 307 278 319 273 270 254 295 280
253 230 226 221 221 199 205 203 204 199 211 218 205 193 200 208 217 224 224 248 263 279 265 265 259 246 225 232 220 205 228 261 244 255 252 283 245 276 280 276 262 284 289
32 205 212 202 210 199 204 207 214 214 215 220 203 209 207 216 219 220 242 250 249 236 248 258 253 248 239 223 226 230 236 236 230 240 251 236 246 263 274 270 273 291 305
77 111 141 150 169 188 205 223 225 227 226 222 224 223 216 231 238 242 247 244 246 238 248 254 235 230 217 227 237 239 233 239 251 240 237 229 234 246 253 269 279 285 296
109 94 85 73 75 207 224 213 231 225 218 219 226 225 224 232 233 235 230 234 243 252 252 246 238 234 231 235 237 233 239 238 246 251 244 236 228 235 233 247 273 284 291
107 106 96 73 53 46 224 238 233 235 242 235 229 224 227 238 242 244 239 236 249 250 258 261 250 235 227 222 257 261 231 237 234 235 235 239 243 249 256 262 267 276 285
99 97 93 98 107 65 74 158 238 245 251 251 240 237 241 245 250 251 274 263 255 260 264 264 261 242 232 218 202 193 199 228 230 234 241 248 252 251 256 265 276 285 289
91 93 92 87 81 85 75 51 88 258 247 251 261 259 263 261 264 265 252 257 255 254 254 286 265 238 225 228 217 226 225 219 228 241 244 249 255 263 267 269 276 280 284
108 108 104 101 97 80 82 63 59 70 155 172 225 236 259 261 262 266 266 262 254 256 261 280 292 274 227 222 227 223 218 233 242 246 253 262 271 272 268 274 280 271 275
131 121 117 109 100 95 86 77 67 64 55 51 24 60 69 342 296 273 266 284 291 287 289 273 231 223 233 219 222 234 237 238 249 260 263 268 270 276 284 286 284 283 277
81 127 122 117 113 106 104 93 83 77 64 66 67 55 65 77 74 76 62 65 36 88 214 231 215 222 218 231 241 250 254 253 260 269 272 276 275 273 277 276 278 279 279
315 125 126 123 121 116 116 114 105 89 65 42 45 46 41 48 62 101 102 84 40 25 207 170 172 246 259 258 264 269 267 268 266 268 267 270 268 271 272 273 272 274 274
0 282 132 117 117 116 116 122 114 97 85 50 22 31 20 5 308 308 302 303 296 268 269 275 266 257 252 253 256 264 269 270 267 267 265 268 271 275 275 273 274 275 275
316 101 98 96 97 100 95 101 114 110 105 62 6 356 338 327 325 323 318 310 306 297 293 292 283 273 268 267 267 265 264 265 264 265 269 270 269 265 262 267 269 273 274
92 89 85 83 83 78 79 69 50 18 9 12 15 351 347 351 349 342 325 309 301 299 298 296 294 292 291 288 282 277 273 271 274 277 277 277 278 277 276 274 274 275 275
85 84 83 80 67 44 20 11 358 336 345 352 349 338 329 315 303 299 298 300 302 301 299 299 299 299 297 295 293 293 290 287 286 286 286 286 284 285 285 284 281 277 271
84 79 83 78 73 55 16 360 341 336 335 329 327 320 305 295 291 292 295 295 297 300 301 301 301 299 298 296 293 289 287 287 287 287 286 285 285 284 284 285 282 280 278
87 84 88 62 20 3 338 317 315 325 312 309 312 306 302 299 298 299 302 304 301 299 299 301 303 302 299 297 294 290 288 288 288 288 290 292 289 287 287 283 279 277 275
41 335 316 295 306 317 305 300 309 308 311 304 299 297 298 300 301 300 298 298 297 297 297 297 298 298 299 299 301 299 296 295 301 301 298 295 294 293 288 280 283 287 285
240 254 284 315 310 292 291 299 304 311 314 306 301 297 291 292 293 295 294 295 297 298 299 301 302 303 309 310 314 316 315 311 309 307 306 304 303 299 293 288 285 278 279
58 24 9 2 349 331 316 311 311 301 294 297 293 291 291 294 298 301 301 299 300 303 305 305 305 309 318 322 315 308 304 303 302 305 305 306 301 299 302 300 298 290 281
341 324 323 329 350 345 333 315 305 293 288 286 287 288 292 297 301 307 305 306 306 307 310 312 311 312 315 313 315 317 321 316 308 304 304 300 294 294 292 294 296 298 289
322 304 301 308 307 310 311 304 297 290 290 290 289 291 295 300 304 303 306 307 310 312 310 316 315 315 318 318 320 317 309 304 304 307 306 304 303 305 304 299 289 296 299
298 305 308 306 304 300 294 289 288 290 295 296 297 298 300 300 302 307 313 313 312 312 316 321 322 322 318 313 308 310 313 316 313 310 308 307 307 309 312 299 292 308 314
304 301 301 300 296 288 285 288 293 297 299 299 302 306 308 311 316 319 323 324 323 324 324 330 320 308 304 309 319 322 322 320 321 319 318 315 313 313 315 318 319 320 312
Wind_Speed_850mb
52 56 63 63 63 50 63 65 64 74 88 76 72 73 67 49 54 54 47 42 46 43 40 62 57 52 57 62 32 40 37 44 46 35 39 38 34 36 33 35 37 38 38
51 49 59 59 60 59 50 49 60 71 52 76 78 54 87 74 64 63 51 40 33 41 52 33 61 63 53 51 53 64 38 49 37 23 18 24 26 30 31 25 23 19 25
27 51 39 54 59 38 38 48 53 50 51 62 64 66 67 62 77 61 53 52 68 66 69 74 85 80 78 65 51 55 56 41 35 34 14 5 20 44 37 36 35 32 27
18 31 31 45 44 41 44 52 54 48 42 45 66 68 69 82 76 80 71 68 69 55 59 41 50 65 73 73 54 58 57 47 49 39 38 37 41 46 49 50 43 37 40
42 27 31 32 32 30 31 38 39 48 52 62 64 60 64 66 70 67 60 47 56 51 50 44 44 47 51 58 59 52 50 50 53 48 50 50 60 55 49 52 52 45 39
51 50 41 37 19 18 18 30 36 38 45 57 57 57 47 45 47 48 51 50 46 52 54 61 59 56 64 65 47 40 52 47 53 57 58 65 60 47 41 39 62 63 55
51 35 28 29 24 25 20 39 36 38 47 56 60 58 53 55 49 50 50 46 59 64 55 58 75 73 65 46 25 34 53 41 57 60 65 59 54 50 51 51 52 57 55
53 48 36 23 12 16 29 9 27 31 42 49 55 60 51 54 55 42 38 42 50 53 53 61 67 83 80 56 40 34 38 50 60 61 59 58 50 51 50 47 43 51 53
46 35 29 25 19 13 16 23 8 9 38 32 32 36 42 44 50 46 46 43 42 52 56 59 59 64 64 58 50 47 50 66 58 55 57 57 48 47 40 37 35 40 53
44 46 39 36 32 29 28 25 24 24 12 10 28 31 32 34 39 40 41 43 48 55 56 53 39 40 38 47 44 48 51 46 47 49 50 48 50 47 43 42 42 48 56
53 49 48 42 39 35 27 30 36 34 29 21 14 8 15 1 8 9 15 22 32 44 44 27 50 54 38 36 37 38 37 39 41 44 50 53 55 54 50 50 54 58 61
31 41 42 38 33 30 27 29 33 31 29 25 19 17 13 24 25 19 15 19 20 7 4 20 19 14 17 21 31 34 36 44 46 49 55 59 60 66 62 62 64 66 67
28 40 38 37 37 29 24 25 24 26 23 20 14 11 8 5 9 8 5 3 4 3 3 5 3 1 10 19 29 38 46 50 56 62 65 68 69 73 75 74 76 75 75
14 28 43 45 51 46 41 32 26 23 18 14 13 12 11 8 7 8 8 10 9 9 15 18 22 28 36 37 38 39 42 44 48 53 55 61 64 67 73 78 83 84 82
24 39 51 49 46 43 38 27 15 10 8 5 18 25 21 20 23 24 21 18 19 21 24 26 27 31 36 41 48 57 63 66 72 76 74 72 69 63 59 57 63 63 70
48 47 43 37 31 28 24 21 15 16 15 12 13 18 23 28 30 27 27 27 28 32 35 38 42 46 48 52 56 61 68 75 83 89 93 95 94 95 95 93 91 80 69
49 42 39 32 26 21 19 17 19 16 11 11 14 20 22 22 25 28 32 38 43 47 50 53 56 58 60 60 63 66 68 72 76 81 86 88 89 89 89 92 95 96 96
33 26 23 16 13 13 14 14 15 18 17 16 20 25 27 31 37 43 47 51 54 56 59 61 61 60 58 54 51 58 66 71 74 77 81 82 82 82 83 85 88 89 86
17 16 16 13 11 11 14 19 19 19 22 27 27 33 37 43 48 52 54 57 60 60 58 54 54 55 59 62 66 72 78 81 84 83 81 77 79 78 73 68 72 78 80
4 4 6 12 17 21 22 16 16 23 28 31 35 41 46 48 49 52 54 49 50 52 58 65 69 73 70 59 57 56 59 64 64 61 61 59 59 57 57 57 61 59 52
8 10 14 14 16 10 19 23 25 27 32 37 45 48 50 51 51 52 53 59 65 70 73 69 60 53 51 49 40 44 52 57 61 64 64 58 52 55 53 54 58 64 63
7 10 9 10 13 17 22 24 24 26 31 35 38 44 47 52 59 66 72 75 72 62 60 53 51 47 40 42 48 53 51 51 53 55 55 56 54 55 52 55 57 56 59
11 10 8 7 11 16 20 26 29 36 41 47 50 52 57 62 68 79 70 57 53 49 46 44 43 45 46 48 52 50 52 54 58 62 61 58 62 67 67 56 49 43 44
13 18 21 22 26 31 35 38 45 50 51 52 55 60 67 77 76 56 48 45 43 41 38 36 42 48 51 51 55 60 62 61 61 65 68 65 64 62 55 46 32 34 34
21 25 30 37 44 51 55 56 58 62 63 65 69 72 67 54 47 41 37 33 27 26 31 36 39 45 51 55 61 59 58 60 60 59 58 54 52 52 43 27 24 33 46
28 34 40 46 44 48 50 54 56 59 64 62 53 42 38 34 33 34 33 22 23 21 21 23 28 40 50 57 51 50 52 49 50 48 42 39 40 39 25 20 28 41 40
Wind_Direction_850mb
230 240 237 244 242 228 239 237 214 195 189 196 195 200 244 228 224 221 217 213 220 219 224 232 224 227 225 218 247 221 239 249 283 274 255 267 271 300 278 272 281 277 270
230 235 235 231 234 223 233 215 201 198 216 205 203 204 200 214 234 227 225 234 249 259 244 264 223 235 246 249 228 218 235 244 252 268 280 307 278 319 273 270 254 295 280
253 230 226 221 221 199 205 203 204 199 211 218 205 193 200 208 217 224 224 248 263 279 265 265 259 246 225 232 220 205 228 261 244 255 252 283 245 276 280 276 262 284 289
32 205 212 202 210 199 204 207 214 214 215 220 203 209 207 216 219 220 242 250 249 236 248 258 253 248 239 223 226 230 236 236 230 240 251 236 246 263 274 270 273 291 305
77 111 141 150 169 188 205 223 225 227 226 222 224 223 216 231 238 242 247 244 246 238 248 254 235 230 217 227 237 239 233 239 251 240 237 229 234 246 253 269 279 285 296
109 94 85 73 75 207 224 213 231 225 218 219 226 225 224 232 233 235 230 234 243 252 252 246 238 234 231 235 237 233 239 238 246 251 244 236 228 235 233 247 273 284 291
107 106 96 73 53 46 224 238 233 235 242 235 229 224 227 238 242 244 239 236 249 250 258 261 250 235 227 222 257 261 231 237 234 235 235 239 243 249 256 262 267 276 285
99 97 93 98 107 65 74 158 238 245 251 251 240 237 241 245 250 251 274 263 255 260 264 264 261 242 232 218 202 193 199 228 230 234 241 248 252 251 256 265 276 285 289
91 93 92 87 81 85 75 51 88 258 247 251 261 259 263 261 264 265 252 257 255 254 254 286 265 238 225 228 217 226 225 219 228 241 244 249 255 263 267 269 276 280 284
108 108 104 101 97 80 82 63 59 70 155 172 225 236 259 261 262 266 266 262 254 256 261 280 292 274 227 222 227 223 218 233 242 246 253 262 271 272 268 274 280 271 275
131 121 117 109 100 95 86 77 67 64 55 51 24 60 69 342 296 273 266 284 291 287 289 273 231 223 233 219 222 234 237 238 249 260 263 268 270 276 284 286 284 283 277
81 127 122 117 113 106 104 93 83 77 64 66 67 55 65 77 74 76 62 65 36 88 214 231 215 222 218 231 241 250 254 253 260 269 272 276 275 273 277 276 278 279 279
315 125 126 123 121 116 116 114 105 89 65 42 45 46 41 48 62 101 102 84 40 25 207 170 172 246 259 258 264 269 267 268 266 268 267 270 268 271 272 273 272 274 274
0 282 132 117 117 116 116 122 114 97 85 50 22 31 20 5 308 308 302 303 296 268 269 275 266 257 252 253 256 264 269 270 267 267 265 268 271 275 275 273 274 275 275
316 101 98 96 97 100 95 101 114 110 105 62 6 356 338 327 325 323 318 310 306 297 293 292 283 273 268 267 267 265 264 265 264 265 269 270 269 265 262 267 269 273 274
92 89 85 83 83 78 79 69 50 18 9 12 15 351 347 351 349 342 325 309 301 299 298 296 294 292 291 288 282 277 273 271 274 277 277 277 278 277 276 274 274 275 275
85 84 83 80 67 44 20 11 358 336 345 352 349 338 329 315 303 299 298 300 302 301 299 299 299 299 297 295 293 293 290 287 286 286 286 286 284 285 285 284 281 277 271
84 79 83 78 73 55 16 360 341 336 335 329 327 320 305 295 291 292 295 295 297 300 301 301 301 299 298 296 293 289 287 287 287 287 286 285 285 284 284 285 282 280 278
87 84 88 62 20 3 338 317 315 325 312 309 312 306 302 299 298 299 302 304 301 299 299 301 303 302 299 297 294 290 288 288 288 288 290 292 289 287 287 283 279 277 275
41 335 316 295 306 317 305 300 309 308 311 304 299 297 298 300 301 300 298 298 297 297 297 297 298 298 299 299 301 299 296 295 301 301 298 295 294 293 288 280 283 287 285
240 254 284 315 310 292 291 299 304 311 314 306 301 297 291 292 293 295 294 295 297 298 299 301 302 303 309 310 314 316 315 311 309 307 306 304 303 299 293 288 285 278 279
58 24 9 2 349 331 316 311 311 301 294 297 293 291 291 294 298 301 301 299 300 303 305 305 305 309 318 322 315 308 304 303 302 305 305 306 301 299 302 300 298 290 281
341 324 323 329 350 345 333 315 305 293 288 286 287 288 292 297 301 307 305 306 306 307 310 312 311 312 315 313 315 317 321 316 308 304 304 300 294 294 292 294 296 298 289
322 304 301 308 307 310 311 304 297 290 290 290 289 291 295 300 304 303 306 307 310 312 310 316 315 315 318 318 320 317 309 304 304 307 306 304 303 305 304 299 289 296 299
298 305 308 306 304 300 294 289 288 290 295 296 297 298 300 300 302 307 313 313 312 312 316 321 322 322 318 313 308 310 313 316 313 310 308 307 307 309 312 299 292 308 314
304 301 301 300 296 288 285 288 293 297 299 299 302 306 308 311 316 319 323 324 323 324 324 330 320 308 304 309 319 322 322 320 321 319 318 315 313 313 315 318 319 320 312